Flag for Germany Weather past 2 weeks in Ahaus, North Rhine-Westphalia, Germany

Now
60 °F

Sunny.


Feels Like: 60 °F
Forecast: 61 / 67 °F
Wind: 5 mph from Northeast

Location: Twenthe

Current Time: Jul 24, 2014 at 6:36:51 AM

Latest Report: Jul 24, 2014 at 6:00 AM


Visibility: 22 mi

Pressure: 30.03 "Hg

Humidity: 82%

Dew point: 54 °F

Location of AhausLocation

Historic Weather in Ahaus — Graph

°F

Ahaus temperature yesterday

Maximum temperature yesterday: 82 °F (at 3:00 PM)
Minimum temperature yesterday: 64 °F (at 6:00 AM)
Average temperature yesterday: 74 °F

Past Weeks' High & Low Weather Summary

 TemperatureHumidityPressure
High92 °F (Jul 19, 4:00 PM)100% (Jul 10, 2:00 AM)30.20 "Hg (Jul 10, 2:00 AM)
Low52 °F (Jul 12, 6:00 AM)28% (Jul 19, 4:00 PM)29.66 "Hg (Jul 9, 5:00 PM)
Average69 °F77%29.95 "Hg
* Reported Jul 9 10:00 AM — Jul 24 5:00 AM, Ahaus, Weather by CustomWeather, © 2014

Note: Actual official high and low records may vary slightly from our data, if they occured in-between our weather recording intervals... More about our weather records

Advertising

Ahaus weather history for previous 24 hours

 ConditionsComfort  
Time TempWeatherWind HumidityBarometerVisibility
5:00 AM
Jul 24
61 °FClear.3 mph80%30.03 "Hg19 mi
4:00 AM64 °FPassing clouds.5 mph75%30.04 "Hg19 mi
3:00 AM64 °FPassing clouds.3 mph77%30.04 "Hg22 mi
2:00 AM65 °FPassing clouds.3 mph76%30.05 "Hg19 mi
1:00 AM67 °FClear.5 mph72%30.05 "Hg25 mi
12:00 AM69 °FClear.5 mph69%30.05 "Hg25 mi
11:00 PM
Jul 23
69 °FClear.3 mph67%30.06 "Hg25 mi
10:00 PM69 °FClear.1 mph65%30.05 "Hg22 mi
9:00 PM73 °FSunny.3 mph56%30.04 "Hg28 mi
8:00 PM78 °FSunny.6 mph43%30.03 "Hg25 mi
7:00 PM80 °FSunny.6 mph41%30.04 "Hg25 mi
6:00 PM80 °FSunny.5 mph41%30.05 "Hg22 mi
5:00 PM81 °FSunny.7 mph40%30.06 "Hg22 mi
4:00 PM81 °FSunny.6 mph42%30.07 "Hg19 mi
3:00 PM82 °FPassing clouds.8 mph38%30.08 "Hg22 mi
2:00 PM81 °FSunny.8 mph40%30.09 "Hg22 mi
6:00 AM64 °FSunny.5 mph82%30.13 "Hg19 mi
Weather by CustomWeather, © 2014

See weather overviewHow to use our weather pages